Weather observations for the past three days for
Wenatchee - Pangborn Memorial Airport
Imperial (Metric)
Date Time (pdt) Wind (mph) Vis. (mi.) Weather Sky Cond. Temperature (ºF) Relative Humidity Wind Chill (°F) Heat Index (°F) Pressure Precipitation (in)
Air Dwpt 6 hour altimeter (in) sea level (mb) 1 hr 3 hr 6 hr
Max. Min.
04 19:55 N 3 10.00 A Few Clouds FEW110 82 39 22% 80 29.7 1004.7
04 18:55 Calm 10.00 Mostly Cloudy BKN110 86 39.9 20% 83 29.68 1004.1
04 17:55 SE 5 10.00 A Few Clouds FEW120 84 39 20% 81 29.68 1004.3
04 16:55 SE 5 10.00 Partly Cloudy SCT120 84.9 35.1 88 73.9 17% 82 29.68 1004.3
04 15:55 SW 7 10.00 Fair CLR 87.1 35.1 16% 84 29.69 1004.5
04 14:55 Calm 10.00 Fair CLR 84.9 36 17% 82 29.71 1005.2
04 13:55 Calm 10.00 Fair CLR 82.9 37 19% 80 29.73 1005.9
04 12:55 Vrbl 3 10.00 Fair CLR 82 37 20% 80 29.76 1006.8
04 11:55 Calm 10.00 Fair CLR 78.1 39 25% 78 29.78 1007.6
04 10:55 W 7 10.00 Fair CLR 73.9 39 73.9 55.9 28% 29.8 1008.3
04 09:55 W 6 10.00 Fair CLR 69.1 39.9 35% 29.81 1008.7
04 08:55 W 10 10.00 Fair CLR 64.9 41 42% 29.82 1009.0
04 07:55 W 8 10.00 Fair CLR 61 42.1 50% 29.82 1009.2
04 06:55 W 8 10.00 Fair CLR 57.9 41 53% 29.82 1009.0
04 05:55 W 8 10.00 Fair CLR 57 41 55% 29.8 1008.5
04 04:55 NW 5 10.00 Fair CLR 57 42.1 72 57 58% 29.8 1008.3
04 03:55 W 8 10.00 Fair CLR 60.1 42.1 52% 29.8 1008.2
04 02:55 W 9 10.00 Fair CLR 60.1 42.1 52% 29.8 1008.3
04 01:55 W 12 10.00 Fair CLR 64 42.1 45% 29.79 1008.0
04 00:55 W 6 10.00 Fair CLR 66 41 40% 29.79 1007.8
03 23:55 W 6 10.00 Fair CLR 69.1 41 36% 29.78 1007.6
03 22:55 NW 7 10.00 Fair CLR 71.1 41 84.9 69.1 34% 29.78 1007.6
03 21:55 NW 3 10.00 Fair CLR 72 39.9 31% 29.78 1007.6
03 20:55 Calm 10.00 Fair CLR 75.9 39 26% 77 29.76 1007.2
03 19:55 E 6 10.00 Fair CLR 77 43 30% 78 29.75 1006.8
03 18:55 SE 6 10.00 Fair CLR 82 41 23% 80 29.76 1006.9
03 17:55 Vrbl 6 10.00 Fair CLR 84 37 19% 81 29.77 1007.4
03 16:55 SE 8 10.00 Fair CLR 84.9 36 84.9 71.1 17% 82 29.79 1008.0
03 15:55 Calm 10.00 Fair CLR 84 35.1 17% 81 29.82 1008.8
03 14:55 SE 8 10.00 Fair CLR 84.9 36 17% 82 29.85 1009.9
03 13:55 S 7 10.00 Fair CLR 82 37 20% 80 29.87 1010.7
03 12:55 Vrbl 5 10.00 Fair CLR 79 39.9 25% 78 29.9 1011.6
03 11:55 Calm 10.00 Fair CLR 75.9 42.1 30% 77 29.93 1012.7
03 10:55 W 8 10.00 Fair CLR 71.1 42.1 71.1 53.1 35% 29.95 1013.4
03 09:55 W 12 10.00 Fair CLR 68 41 38% 29.96 1014.0
03 08:55 W 8 10.00 Fair CLR 63 42.1 47% 29.98 1014.8
03 07:55 W 14 10.00 Fair CLR 59 41 51% 29.99 1014.9
03 06:55 W 9 10.00 Fair CLR 55 42.1 62% 29.98 1014.8
03 05:55 W 7 10.00 Fair CLR 54 42.1 64% 29.98 1014.7
03 04:55 W 7 10.00 Fair CLR 55 42.1 66 55 62% 29.98 1014.7
03 03:55 NW 10 10.00 Fair CLR 59 41 51% 29.98 1014.6
03 02:55 Vrbl 3 10.00 Fair CLR 57.9 42.1 56% 29.98 1014.4
03 01:55 W 9 10.00 Fair CLR 60.1 43 53% 29.97 1014.2
03 00:55 W 8 10.00 Fair CLR 62.1 43 50% 29.96 1014.0
02 23:55 W 12 10.00 Fair CLR 66 41 40% 29.95 1013.7
02 22:55 W 3 10.00 Fair CLR 66 42.1 82.9 66 42% 29.94 1013.3
02 21:55 NW 6 10.00 Fair CLR 69.1 39.9 35% 29.94 1013.1
02 20:55 W 5 10.00 Fair CLR 72 42.1 34% 29.92 1012.6
02 19:55 NW 5 10.00 Fair CLR 75.9 44.1 32% 77 29.9 1011.9
02 18:55 W 7 10.00 Fair CLR 80.1 39.9 24% 79 29.9 1011.7
02 17:55 W 8 10.00 Fair CLR 81 37.9 21% 79 29.9 1011.8
02 16:55 NW 5 10.00 Fair CLR 81 37.9 82 70 21% 79 29.91 1012.0
02 15:55 Vrbl 7 10.00 Fair CLR 82 39 22% 80 29.93 1012.6
02 14:55 Vrbl 6 10.00 Fair CLR 81 39 22% 79 29.95 1013.4
02 13:55 W 9 10.00 Fair CLR 79 39 24% 78 29.96 1013.9
02 12:55 SW 8 10.00 Fair CLR 77 39 26% 77 29.99 1014.7
02 11:55 W 3 10.00 Fair CLR 73 41 32% 30 1015.4
02 10:55 Vrbl 6 10.00 Fair CLR 72 41 72 57 33% 30.01 1015.8
02 09:55 W 8 10.00 Fair CLR 68 42.1 39% 30.01 1015.6
02 08:55 W 9 10.00 Fair CLR 63 43 48% 30.01 1015.9
02 07:55 SW 7 10.00 Fair CLR 59 44.1 58% 30.01 1015.8
02 06:55 N 8 10.00 Fair CLR 57.9 43 58% 30 1015.5
02 05:55 SW 13 10.00 Mostly Cloudy BKN100 BKN120 59 42.1 54% 29.98 1014.5
02 04:55 N 5 10.00 A Few Clouds FEW110 57.9 43 63 57 58% 29.99 1014.9
02 03:55 SW 6 10.00 Fair CLR 57.9 43 58% 30 1015.2
02 02:55 Calm 10.00 Fair CLR 59 43 56% 29.98 1014.7
02 01:55 NW 10 10.00 Fair CLR 61 41 48% 29.98 1014.5
02 00:55 NW 5 10.00 Fair CLR 61 41 48% 29.98 1014.7
01 23:55 NW 3 10.00 Fair CLR 61 42.1 50% 29.98 1014.6
01 22:55 NE 3 10.00 Fair CLR 60.1 43 77 60.1 53% 29.97 1014.4
01 21:55 N 6 10.00 Fair CLR 64.9 41 42% 29.96 1014.1
01 20:55 Calm 10.00 Fair CLR 66.9 39.9 37% 29.94 1013.6
Date Time (pdt) Wind (mph) Vis. (mi.) Weather Sky Cond. Air Dwpt Max. Min. Relative Humidity Wind Chill (°F) Heat Index (°F) altimeter (in) sea level (mb) 1 hr 3 hr 6 hr
6 hour
Temperature (ºF) Pressure Precipitation (in)